Time,TemperatureF,DewpointF,PressureIn,WindDirection,WindDirectionDegrees,WindSpeedMPH,WindSpeedGustMPH,Humidity,HourlyPrecipIn,Conditions,Clouds,dailyrainin,SoftwareType,DateUTC
2013-03-10 00:00:00,50.2,28.0,30.01,South,180,7.0,22.0,42,0.00,,,-99.99,WeatherLink 5.6,2013-03-10 05:00:00,
2013-03-10 00:30:00,49.4,28.4,30.00,South,180,8.0,22.0,44,0.00,,,-99.99,WeatherLink 5.6,2013-03-10 05:30:00,
2013-03-10 01:00:00,49.2,29.3,30.00,South,180,9.0,25.0,46,0.00,,,-99.99,WeatherLink 5.6,2013-03-10 06:00:00,
2013-03-10 01:30:00,49.2,29.8,29.99,South,180,10.0,23.0,47,0.00,,,-99.99,WeatherLink 5.6,2013-03-10 06:30:00,
2013-03-10 04:00:00,48.9,30.1,29.97,South,180,9.0,23.0,48,0.00,,,-99.99,WeatherLink 5.6,2013-03-10 08:00:00,
2013-03-10 04:30:00,49.2,29.8,29.96,South,180,9.0,21.0,47,0.00,,,-99.99,WeatherLink 5.6,2013-03-10 08:30:00,
2013-03-10 05:00:00,49.2,29.3,29.95,South,180,8.0,19.0,46,0.00,,,-99.99,WeatherLink 5.6,2013-03-10 09:00:00,
2013-03-10 05:30:00,49.8,29.3,29.94,South,180,9.0,21.0,45,0.00,,,-99.99,WeatherLink 5.6,2013-03-10 09:30:00,
2013-03-10 05:50:00,49.8,29.3,29.94,South,180,10.0,22.0,45,0.00,,,-99.99,WeatherLink 5.6,2013-03-10 09:50:00,
2013-03-10 06:10:00,49.5,29.0,29.93,South,180,10.0,23.0,45,0.00,,,-99.99,WeatherLink 5.6,2013-03-10 10:10:00,
2013-03-10 06:40:00,49.5,29.0,29.94,South,180,9.0,24.0,45,0.00,,,-99.99,WeatherLink 5.6,2013-03-10 10:40:00,
2013-03-10 07:10:00,50.0,28.9,29.94,South,180,12.0,24.0,44,0.00,,,-99.99,WeatherLink 5.6,2013-03-10 11:10:00,
2013-03-10 07:40:00,49.1,28.1,29.95,South,180,10.0,25.0,44,0.00,,,-99.99,WeatherLink 5.6,2013-03-10 11:40:00,
2013-03-10 08:10:00,49.1,28.1,29.96,South,180,9.0,23.0,44,0.00,,,-99.99,WeatherLink 5.6,2013-03-10 12:10:00,
2013-03-10 08:40:00,49.5,28.5,29.98,South,180,7.0,18.0,44,0.00,,,-99.99,WeatherLink 5.6,2013-03-10 12:40:00,
2013-03-10 09:10:00,50.0,29.5,29.98,South,180,10.0,20.0,45,0.00,,,-99.99,WeatherLink 5.6,2013-03-10 13:10:00,
2013-03-10 09:40:00,51.3,30.7,29.98,South,180,6.0,20.0,45,0.00,,,-99.99,WeatherLink 5.6,2013-03-10 13:40:00,
2013-03-10 10:10:00,51.5,30.8,29.98,SSE,157,7.0,18.0,45,0.00,,,-99.99,WeatherLink 5.6,2013-03-10 14:10:00,
2013-03-10 10:40:00,53.2,31.8,29.98,SSE,157,8.0,21.0,44,0.00,,,-99.99,WeatherLink 5.6,2013-03-10 14:40:00,
2013-03-10 11:10:00,54.7,33.2,29.97,South,180,6.0,19.0,44,0.00,,,-99.99,WeatherLink 5.6,2013-03-10 15:10:00,
2013-03-10 11:40:00,56.7,33.8,29.97,SSW,202,7.0,18.0,42,0.00,,,-99.99,WeatherLink 5.6,2013-03-10 15:40:00,
2013-03-10 12:10:00,56.7,34.4,29.97,South,180,10.0,20.0,43,0.00,,,-99.99,WeatherLink 5.6,2013-03-10 16:10:00,
2013-03-10 12:40:00,57.7,35.9,29.97,South,180,9.0,17.0,44,0.00,,,-99.99,WeatherLink 5.6,2013-03-10 16:40:00,
2013-03-10 13:10:00,58.7,35.7,29.96,South,180,10.0,20.0,42,0.00,,,-99.99,WeatherLink 5.6,2013-03-10 17:10:00,
2013-03-10 13:40:00,60.8,36.3,29.94,South,180,9.0,20.0,40,0.00,,,-99.99,WeatherLink 5.6,2013-03-10 17:40:00,
2013-03-10 14:10:00,61.8,37.2,29.92,SSE,157,6.0,16.0,40,0.00,,,-99.99,WeatherLink 5.6,2013-03-10 18:10:00,
2013-03-10 14:40:00,61.7,35.8,29.91,SSE,157,11.0,25.0,38,0.00,,,-99.99,WeatherLink 5.6,2013-03-10 18:40:00,
2013-03-10 15:10:00,63.1,37.7,29.88,SSE,157,11.0,21.0,39,0.00,,,-99.99,WeatherLink 5.6,2013-03-10 19:10:00,
2013-03-10 15:40:00,63.8,39.0,29.90,SSE,157,8.0,22.0,40,0.00,,,-99.99,WeatherLink 5.6,2013-03-10 19:40:00,
2013-03-10 16:10:00,64.2,38.0,29.89,South,180,7.0,22.0,38,0.00,,,-99.99,WeatherLink 5.6,2013-03-10 20:10:00,
2013-03-10 16:40:00,65.0,38.8,29.86,SSE,157,7.0,20.0,38,0.00,,,-99.99,WeatherLink 5.6,2013-03-10 20:40:00,
2013-03-10 17:10:00,64.3,37.5,29.86,South,180,11.0,23.0,37,0.00,,,-99.99,WeatherLink 5.6,2013-03-10 21:10:00,
2013-03-10 17:40:00,65.0,38.1,29.86,SSE,157,9.0,22.0,37,0.00,,,-99.99,WeatherLink 5.6,2013-03-10 21:40:00,
2013-03-10 18:10:00,64.3,37.5,29.85,SSE,157,7.0,19.0,37,0.00,,,-99.99,WeatherLink 5.6,2013-03-10 22:10:00,
2013-03-10 18:40:00,62.9,36.9,29.87,SSE,157,8.0,20.0,38,0.00,,,-99.99,WeatherLink 5.6,2013-03-10 22:40:00,
2013-03-10 19:10:00,61.5,36.3,29.87,SSE,157,10.0,22.0,39,0.00,,,-99.99,WeatherLink 5.6,2013-03-10 23:10:00,
2013-03-10 19:40:00,60.1,35.7,29.88,SSE,157,12.0,25.0,40,0.00,,,-99.99,WeatherLink 5.6,2013-03-10 23:40:00,
2013-03-10 20:10:00,59.0,35.9,29.88,SSE,157,13.0,25.0,42,0.00,,,-99.99,WeatherLink 5.6,2013-03-11 00:10:00,
2013-03-10 20:40:00,57.8,34.8,29.87,SSE,157,11.0,26.0,42,0.00,,,-99.99,WeatherLink 5.6,2013-03-11 00:40:00,
2013-03-10 22:00:00,56.8,34.5,29.88,SSE,157,17.0,33.0,43,0.00,,,-99.99,WeatherLink 5.6,2013-03-11 02:00:00,
2013-03-10 22:30:00,55.2,34.2,29.87,SSE,157,15.0,28.0,45,0.00,,,-99.99,WeatherLink 5.6,2013-03-11 02:30:00,
2013-03-10 23:00:00,54.3,33.9,29.87,SSE,157,19.0,36.0,46,0.00,,,-99.99,WeatherLink 5.6,2013-03-11 03:00:00,
2013-03-10 23:30:00,53.4,33.7,29.86,SSE,157,18.0,34.0,47,0.00,,,-99.99,WeatherLink 5.6,2013-03-11 03:30:00,